DELTA 1 DEB, 21457

Orbit data source: Space-Track

DELTA 1 DEB, 21457 is space debris in SSO originally from a launch on Thu, 12 Jun 1975 UTC launched from the Air Force Western Test Range (AFWTR). Debris objects in space refer to the collection of defunct objects orbiting the Earth. Examples of debris include non-operational satellites, rocket bodies, and fragments generated from explosions, collisions, or faulty payload assembly.

Loading next visibility...
Identifier
21457, 1975-052ER
Orbit
SSO
Country
Flag of USUS
Related business
Manufacturer
Unknown
Mission
Spacecraft
Bus & Motor
Unknown
Mass
Unknown
Launch date (UTC)
1975-06-12 (51 years ago)
Launch vehicle
Unknown
Launch site
Air Force Western Test Range (AFWTR)
Object type
Payload
Rocket body
Debris
Shape & HBR
Unknown shape, 0.1 m
Radar Cross Section
Small (<0.1 m²)

Expand to show TLE details & history
Last TLE update: 5 hours ago

TLE from 5 hours ago
0 DELTA 1 DEB
1 21457U 75052ER  26127.20581920  .00001129  00000-0  15902-2 0  9995
2 21457  99.9595  40.9164 0282831 259.5082 263.1921 13.44284696696828
Epoch: 2026-05-07T04:56Z
TLE epoch observation values (Epoch: 2026-05-07T04:56:22.778Z)
Latitude
20.18501°
Longitude
-74.55138°
Altitude
1,126.66 km
Speed
7.276 km/s
True Right ascension
14h 58m 23s
True Declination
20° 04' 46"
Sunlit
Object was in full shadow at epoch
Visualization orbit readout
Latitude
Unknown
Longitude
Unknown
Altitude
Unknown
Speed
Unknown
Apparent Right ascension
Unknown
Apparent Declination
Unknown
Sunlit
N/A
Visualization observer readout
Local Sidereal Time
18:16:52
Azimuth
Unknown
Elevation
Unknown
Doppler factor
Unknown
Orbital elements
Apogee altitude
1,301.921 km
Perigee altitude
879.439 km
Semi-major axis
7,468.817 km
Eccentricity
0.02828
Inclination
99.9595°
RAAN
40.9164°
Arg. of periapsis
259.5082°
True anomaly
259.98905°
Mean anomaly
263.1921°
Eccentric anomaly
261.58903°
Mean motion
3.36252 °/min
Orbital period
107.06 mins
BSTAR
0.0015902
Loading maneuver chart data...
Computing Atmospheric mass density...
Loading historical data...
Loading historical data...
Loading historical data...
Loading historical data...
Loading historical data...
Loading historical data...
Loading historical data...

Documentation

Showing up to 5 results
|